This is the latest recevied weather packets stored in our database for station/object EC2UT-13. If no packets are shown the sender has not sent any weather packets the latest 10 day(s).
| Time | Temp. | Humidity | Pressure | Rain* | Wind** | Luminosity | Snow |
|---|---|---|---|---|---|---|---|
| 1777403418 | 22.22° C | 31% | 1009.3 hPa | 0 mm | - | - | - |
| 1777401618 | 22.78° C | 30% | 1009 hPa | 0 mm | - | - | - |
| 1777400418 | 23.33° C | 28% | 1008.6 hPa | 0 mm | - | - | - |
| 1777398618 | 24.44° C | 29% | 1008.5 hPa | 0 mm | - | - | - |
| 1777394418 | 26.11° C | 21% | 1008.6 hPa | 0 mm | - | - | - |
| 1777393818 | 26.67° C | 22% | 1008.8 hPa | 0 mm | - | - | - |
| 1777393218 | 26.67° C | 22% | 1008.7 hPa | 0 mm | - | - | - |
| 1777392017 | 27.22° C | 20% | 1008.8 hPa | 0 mm | - | - | - |
| 1777388418 | 27.22° C | 16% | 1009.8 hPa | 0 mm | - | - | - |
| 1777381818 | 25.56° C | 23% | 1012 hPa | 0 mm | - | - | - |
| 1777378818 | 23.89° C | 21% | 1012.6 hPa | 0 mm | - | - | - |
| 1777378217 | 23.33° C | 24% | 1012.7 hPa | 0 mm | - | - | - |
| 1777373417 | 21.11° C | 33% | 1014.1 hPa | 0 mm | - | - | - |
| 1777372817 | 20.56° C | 32% | 1014.1 hPa | 0 mm | - | - | - |
| 1777369217 | 19.44° C | 30% | 1014.8 hPa | 0 mm | - | - | - |
| 1777365617 | 17.78° C | 33% | 1015.2 hPa | 0 mm | - | - | - |
| 1777359017 | 14.44° C | 47% | 1015.1 hPa | 0 mm | - | - | - |
| 1777357817 | 13.33° C | 48% | 1015.4 hPa | 0 mm | - | - | - |
| 1777355417 | 12.22° C | 50% | 1015.1 hPa | 0 mm | - | - | - |
| 1777350657 | 13.33° C | 47% | 1015 hPa | 0 mm | - | - | - |
| 1777350037 | 13.33° C | 45% | 1015.1 hPa | 0 mm | - | - | - |
| 1777344617 | 14.44° C | 42% | 1015.9 hPa | 0 mm | - | - | - |
| 1777338616 | 17.22° C | 32% | 1016.5 hPa | 0 mm | - | - | - |
| 1777336817 | 17.22° C | 33% | 1016.7 hPa | 0 mm | - | - | - |
| 1777333818 | 17.78° C | 31% | 1017 hPa | 0 mm | - | - | - |
* Rain latest hour (hover to see other rain measurements)
** Current wind speed in m/s (hover to see current wind gust speed)